Regional Weather Roundup
Issued by NWS Newport/Morehead, NC

Current Version | Previous Version | Graphics & Text | Print | Product List | Glossary Off
Versions: 1 2 3 4 5 6 7 8 9 10 11 12 13 14 15 16 17 18 19 20 21 22 23 24 25 26 27 28 29 30 31 32 33 34 35 36 37 38 39 40 41 42 43 44 45 46 47 48 49 50

000
ASUS42 KMHX 030425
RWRMHX
WEATHER ROUNDUP FOR EASTERN NORTH CAROLINA
NATIONAL WEATHER SERVICE NEWPORT/MOREHEAD CITY NC
1200 AM EDT WED JUN 03 2015

NOTE: "FAIR" INDICATES FEW OR NO CLOUDS BELOW 12,000 FEET
WITH NO SIGNIFICANT WEATHER AND/OR OBSTRUCTIONS TO VISIBILITY

NCZ015>017-031-032-045>047-102-103-030500-
NORTH COAST

CITY           SKY/WX    TMP DP  RH WIND       PRES   REMARKS
EDENTON        CLOUDY    68  67  96 CALM      30.03F
ELIZABETH CITY CLOUDY    68  67  96 N6        30.04S
KITTY HAWK       N/A     67  67  99 N3        30.02S
MANTEO         CLOUDY    69  67  95 NE3       30.03S

$$

NCZ045>047-081-094-103-104-030500-
CENTRAL COAST

CITY           SKY/WX    TMP DP  RH WIND       PRES   REMARKS
FRISCO         CLOUDY    72  67  84 CALM      30.02S
SWANQUARTER      N/A     70 N/A N/A NE3       29.97S

$$

NCZ095-097-098-100-101-030500-
SOUTHERN COAST

CITY           SKY/WX    TMP DP  RH WIND       PRES   REMARKS
BEAUFORT       CLOUDY    74  70  87 E6        30.01S
CEDAR ISLAND     N/A     75 N/A N/A SE3       30.06S
JACKSONVILLE   MOCLDY    70  67  90 CALM      30.00S
PINEY ISLAND   CLOUDY   N/A N/A N/A S6        30.01S
WILMINGTON     CLOUDY    73  70  90 E3        30.00S


$$

NCZ011>013-027>030-043-044-078>080-089-090>093-098-030500-
COASTAL PLAIN

CITY           SKY/WX    TMP DP  RH WIND       PRES   REMARKS
AHOSKIE        CLOUDY    69  68  98 CALM      30.04R
CLINTON        CLOUDY    69  68  98 CALM      30.00F
ELIZABETHTOWN  CLOUDY    72  72 100 SE5       30.01R
GOLDSBORO      LGT RAIN  70  70 100 CALM      29.99S
GREENVILLE     CLOUDY    72  72 100 CALM      30.03S
HAVELOCK       CLOUDY    71  67  87 SE6       30.02S
KENANSVILLE    CLOUDY    69  68  96 CALM      30.02S
KINSTON        LGT RAIN  71  70  94 CALM      30.03R
NEW BERN       MOCLDY    70  67  90 CALM      30.02S FOG
RICHLANDS      MOCLDY    68  64  88 CALM      30.01F
ROCKY MOUNT    CLOUDY    71  69  93 CALM      30.02R
WASHINGTON     CLOUDY    69  69  98 E3        30.02F
WHITEVILLE     MOCLDY    71  69  94 CALM      29.99S

$$

AMZ130-135-150-152-154-156-158-170-250-252-270-ANZ085-086-088-633-658-670-030500-
MARINE OBSERVATIONS

STATION/POSITION TIME  TEMP    WIND        PRES    WAVE   SWELL
                       AIR SEA DIR/SP/G            HT/PER HT/PER
                 (UTC) (F)     (DEG/KT/KT) (MB)    (FT/S) (FT/S)
CHESAPEAKE LIGHT 0400   67      50/ 17/ 18 1017.2
64 E VA BEACH    0350   72 72  220/  2/  4 1016.2    4/ 7   3/ 7
DUCK             0400   62 58  350/  9/  9 1015.8
2 E DUCK         0311      62                N/A     2/ 8
OREGON INLET     0400   70 76  360/  1/  2 1016.5
13E OREGON INLT  0400      76                N/A     3/ 8
HATTERAS CG      0400   75 79  250/  1/  1 1016.0
DIAMOND BUOY     0350   77 81  320/  4/  4 1016.4    2/ 8   2/ 8
CAPE LOOKOUT     0400   77     120/  6/  7 1016.0
BEAUFORT LAB     0400   78 79  150/  2/  3 1015.5
30 SE NEW RVR IN NOT AVBL
27 SE WRIGHTSVLE 0400      78  170/  6/  6   N/A
5 SE WRIGHTSVLE  0308   79 78  180/  8/ 12 1015.7
225 S CAPE HAT   0350   78 77  160/  6/  6 1017.6    3/ 8   3/ 8
41 SE CHARLESTON 0350   80 80  180/ 10/ 10 1014.9    2/ 8   2/ 8

$$


USA.gov is the U.S. government's official web portal to all federal, state and local government web resources and services.